www.pogodaiklimat.ru

Погода и климат >> Архив погоды >> Россия >> Чукотка >> Эгвекинот


АРХИВ ПОГОДЫ в Эгвекиноте

Время (UTC), дата Ветер
(напр.,м/с)
 
Видим.   Явления Облачность Т
(С)
Тd
(С)
f
(%)
Тe
(С)
Тes
(С)
Комфортность P
(гПа)
Po
(гПа)
Тmin
(С)
Tmax
(С)
R
(мм)
R24
(мм)
S
(см)
09 20.05 СЗ 3
{8}
20 км 3/0
[Ac trans]
-1.6 -7.6 64 -6 -6 1019.2 1016.3
12 20.05 С 4
{5}
20 км 10/8 1020 м
[Sc Ac und]
-1.7 -5.9 73 -7 -7 1019.0 1016.1
15 20.05 С 5
{7}
20 км 10/8 1050 м
[Sc Ac und]
-0.8 -5.4 71 -7 -7 1018.7 1015.8
18 20.05 С 5
{8}
20 км 10/6 1200 м
[Sc Ac und]
-0.1 -4.4 73 -6 -6 1018.8 1015.9 -1.9 61
21 20.05 С 7
{7}
20 км 10/6 1050 м
[Sc Ac und]
+1.6 -4.7 63 -5 -4 1018.8 1015.9 -1.9
00 21.05 С 5
{7}
20 км 10/8 1050 м
[Sc Ac und]
+2.6 -4.8 58 -2 -2 1018.3 1015.5
03 21.05 СЗ 4
{9}
20 км 10/8 1200 м
[Sc Ac und]
+3.8 -4.2 56 -0 0 1017.8 1015.0
06 21.05 СЗ 5
{8}
20 км 10/8 1260 м
[Sc Ac und]
+3.2 -3.4 62 -2 -2 1018.1 1015.3 +4.0
09 21.05 С 5
{7}
20 км 8/8 1320 м
[Sc]
+2.6 -2.9 67 -2 -2 1018.6 1015.8
12 21.05 СЗ 5
{8}
20 км 1/1 1000 м
[Sc]
+2.6 -3.9 62 -2 -2 1018.5 1015.7
15 21.05 СЗ 6
{9}
20 км ясно +1.6 -4.3 65 -4 -4 1019.3 1016.4
18 21.05 С 6
{9}
20 км ясно +1.9 -3.8 66 -4 -3 1019.6 1016.7 +1.4 59
21 21.05 СЗ 6
{9}
20 км ясно +3.4 -3.0 63 -2 +1 1019.7 1016.9 +1.2
00 22.05 СЗ 5
{8}
20 км ясно +4.6 -3.2 57 0 +6 1020.4 1017.6
03 22.05 С 5
{8}
20 км ясно +5.3 -3.3 54 +1 +5 1020.6 1017.8
06 22.05 С 5
{7}
20 км ясно +4.2 -3.1 59 -0 +1 1021.2 1018.4 +5.3
09 22.05 С 3
{8}
20 км ясно +1.1 -3.1 74 -3 -3 1022.4 1019.5
12 22.05 С 3
{7}
20 км ясно +1.1 -3.2 73 -3 -3 1022.8 1019.9
15 22.05 З 1
{7}
20 км 10/0
[Ac und]
+0.7 -2.7 78 -1 -1 1023.0 1020.1
18 22.05 ЮВ 2
{5}
10 км 10/10 660 м
[Sc Ac und]
+0.2 -1.1 91 -4 -4 1023.3 1020.4 +0.1 52
21 22.05 Ю 3
{3}
10 км 10/10 570 м
[Sc]
+0.3 -2.2 83 -4 -4 1023.7 1020.8 +0.1
00 23.05 ЮВ 1
{3}
10 км 10/10 660 м
[Sc]
+1.8 -2.3 74 0 0 1022.7 1019.8
03 23.05 штиль 0
{3}
10 км 10/8 960 м
[Sc Ac und]
+3.6 -2.8 63 +3 +4 1021.7 1018.9
06 23.05 Ю 2
{3}
20 км 10/6 1050 м
[Sc Ac und]
+1.9 -2.5 73 -1 -1 1021.2 1018.3 +3.9
09 23.05 Ю 2
{3}
20 км 10/6 900 м
[Sc Ac und]
+0.5 -2.1 83 -3 -3 1020.8 1017.9
12 23.05 штиль 0
{3}
20 км 10/8 960 м
[Sc Ac und]
+0.5 -1.9 84 -1 -1 1020.1 1017.2
15 23.05 С 1
{3}
20 км 10/5 1000 м
[Sc Ac trans Ci fib]
0.0 -3.1 80 -2 -2 1019.9 1017.0
18 23.05 Ю 3
{4}
4000 м туман на расстоянии 10/5 840 м
[Sc Ac trans Ci sp]
-0.3 -2.2 87 -5 -5 1019.7 1016.8 -0.6 51
21 23.05 ЮВ 3
{5}
4000 м туман на расстоянии 10/6 210 м
[St Ac trans Ci sp]
0.0 -2.0 86 -5 -3 1019.8 1016.9 -0.9
00 24.05 ЮВ 4
{6}
10 км 10/6 300 м
[Sc Ac trans Ci sp]
+1.8 -1.5 79 -3 -2 1019.3 1016.4
03 24.05 Ю 5
{7}
4000 м туман на расстоянии 10/6 300 м
[Sc Ac und]
+0.5 -1.1 89 -6 -5 1019.3 1016.4
06 24.05 ЮВ 5
{6}
4000 м туман на расстоянии 10/8 420 м
[St Ac und]
-0.1 -1.1 93 -6 -6 1019.6 1016.7 +2.2
09 24.05 Ю 3
{6}
500 м туман ?/? 0.0 0.0 100 -5 -5 1020.1 1017.2
12 24.05 Ю 2
{5}
10 км {туман} 10/4 300 м
[St Ac und]
+0.4 -1.2 89 -3 -3 1020.6 1017.7
15 24.05 штиль 0
{4}
10 км 10/6 300 м
[St Ac und]
+0.4 -0.5 94 -1 -1 1020.3 1017.4
18 24.05 Ю 2
{3}
4000 м туман на расстоянии 10/6 300 м
[St Ac trans Ci sp]
+0.6 -0.3 94 -3 -3 1020.6 1017.7 -0.1 49
21 24.05 штиль 0
{4}
10 км 10/6 600 м
[Cb cap Ac und]
+2.6 -1.8 73 +2 +3 1020.2 1017.3 -0.1
00 25.05 ЮВ 2
{3}
10 км 10/8 700 м
[Cb cap Ac und]
+2.9 -1.7 72 0 +1 1019.6 1016.8
03 25.05 Ю 3
{4}
10 км 10/9 1000 м
[Cb cap Ac und]
+2.8 -1.2 75 -1 -1 1019.1 1016.3
06 25.05 Ю 2
{4}
10 км 10/9 600 м
[Cb cap Ac und]
+2.4 -0.9 79 -1 -1 1018.3 1015.4 +3.3
09 25.05 штиль 0
{3}
10 км 9/6 600 м
[Cb cap Ac trans]
+1.4 -0.9 85 0 0 1017.6 1014.8
12 25.05 Ю 3
{4}
10 км 10/9 1020 м
[Cb cap Ac und]
+0.9 -0.6 90 -4 -4 1016.7 1013.9
15 25.05 С 1
{4}
10 км 10/8 600 м
[Cb cap Ac und]
+0.7 -0.6 91 -1 -1 1016.0 1013.2
18 25.05 Ю 1
{2}
10 км 10/9 600 м
[Cb cap Ac und]
+1.3 -1.0 85 -1 -0 1015.1 1012.3 +0.3 48
21 25.05 Ю 3
{4}
10 км 10/9 600 м
[Cb cap Ac und]
+1.8 -1.1 81 -2 -2 1014.5 1011.7 +0.3
00 26.05 штиль 0
{3}
20 км 10/6 600 м
[Cb cap Ac und]
+3.7 -1.5 69 +3 +5 1012.8 1010.0
03 26.05 штиль 0
{3}
20 км 6/0
[Ci fib]
+5.7 -1.3 61 +5 +15 опасность
простуды
1011.3 1008.5
06 26.05 Ю 4
{5}
20 км 3/0 300 м
[Ci fib]
+2.0 -0.9 81 -3 -1 1010.6 1007.8 +5.7
09 26.05 штиль 0
{5}
500 м туман 3/0
[Ci fib]
-0.9 -1.4 96 -2 -2 1009.7 1006.9
12 26.05 штиль 0
{2}
500 м туман 3/0
[Ci fib]
-1.9 -2.3 97 -3 -3 1008.6 1005.8
15 26.05 штиль 0
{2}
20 км {туман} 3/0
[Ci fib]
-2.3 -2.9 96 -4 -3 1007.1 1004.3
18 26.05 штиль 0
{2}
20 км {туман} 3/0
[Ci fib]
-0.1 -0.6 96 -1 +2 1006.6 1003.8 -2.9 39
21 26.05 С 2
{4}
20 км 9/0
[Ac trans Ci sp]
+7.5 +0.3 60 +6 +11 1005.5 1002.8 -2.9
00 27.05 С 5
{8}
20 км 6/0
[Ac trans Ci fib]
+10.1 +0.2 50 +7 +12 1004.6 1001.9
03 27.05 СЗ 5
{9}
20 км 9/5 1000 м
[Sc Ac trans]
+9.4 -0.7 49 +7 +8 1004.3 1001.6
06 27.05 СЗ 5
{10}
20 км 8/3 1000 м
[Sc Ac trans]
+9.0 -1.4 48 +6 +7 1004.0 1001.3 +10.6

 

Местоположение метеостанции Эгвекинот (Чукотка, Россия): широта 66.35 долгота -179.00 высота над уровнем моря 22 м.

В архиве по умолчанию представлена погода в Эгвекиноте за последнюю неделю. Архивные данные за месяц целиком и за предыдущие месяцы, начиная с января 2011 года, Вы можете получить, выбрав интересующий диапазон дат из раскрывающегося списка и нажав кнопку "Ввод!".


*Определитесь, кто Вы:
робот инопланетянин человек

Внимание! Время в таблицах - всемирное. Для получения местного времени необходимо прибавить поправку, которая равна 12 ч.

Смотрите также архив погоды в соседних городах и на ближайших метеорологических станциях:

Погода на Мысе Ванкарем (Чукотка, Россия) (239 км)
Погода на Мысе Шмидта (Чукотка, Россия) (280 км)
Погода в Уэлене (Чукотка, Россия) (448 км)
Погода на Острове Врангеля (Чукотка, Россия) (517 км)

Пояснения к столбцам:

Ветер - указаны скорость ветра в м/с - средняя за 10 мин, порывы в срок и между сроками (в фигурных скобках) и направление, откуда дует ветер: С - северный, СВ - северо-восточный, В - восточный, ЮВ - юго-восточный, Ю - южный, ЮЗ - юго-западный, З - западный, СЗ - северо-западный.
Видимость - горизонтальная дальность видимости в метрах или километрах. При видимости от 1 до 10 км при отсутствии осадков обычно наблюдается дымка, при ухудшении видимости до 1 км и менее - туман. В сухую погоду видимость может ухудшаться дымом, пылью или мглою.
Явления - указаны атмосферные явления, наблюдавшиеся в срок или в последний час перед сроком; фигурными скобками обозначены явления, наблюдавшиеся между сроками (за 1-3 часа до срока); квадратными скобками обозначены град или гололедные отложения с указанием их диаметра в мм.
Облачность - указаны через наклонную черту общая и нижняя облачность в баллах и высота нижней границы облаков в метрах; квадратными скобками обозначены формы облаков: Ci - перистые, Cs - перисто-слоистые, Cc - перисто-кучевые, Ac - высококучевые, As - высокослоистые, Sc - слоисто-кучевые, Ns - слоисто-дождевые, Cu - кучевые, Cb - кучево-дождевые. Подробнее классификацию облаков см. в Атласе облаков (PDF).
T - Температура воздуха - температура, измеренная на высоте 2 м над землей.
Td - Температура точки росы - температура, при понижении до которой содержащийся в воздухе водяной пар достигнет насыщения.
f - Относительная влажность воздуха - влажноcть воздуха, измеренная на высоте 2 м над землей.
Te - Эффективная температура - температура, которую ощущает одетый по сезону человек в тени. Характеристика душности погоды. При расчете учитывается влияние влажности воздуха и скорости ветра на теплоощущения человека.
Tes - Эффективная температура на солнце - температура, которую ощущает человек, с поправкой на солнечный нагрев. Характеристика знойности погоды. Зависит от высоты солнца над горизонтом, облачности и скорости ветра. Ночью, в пасмурную погоду, а также при ветре 12 м/с и более поправка равна нулю.
P - Атмосферное давление - приведенное к уровню моря атмосферное давление.
Po - Атмосферное давление - измеренное на уровне метеостанции атмосферное давление.
Tmin - Минимальная температура - минимум температуры воздуха на высоте 2 м над землей.
Tmax - Максимальная температура - максимум температуры воздуха на высоте 2 м над землей.
R - Количество осадков - Количество выпавших осадков за период времени, мм. При наведении курсора мыши на число - период времени, за который выпало указанное количество осадков.
R24 - Количество осадков - Количество выпавших осадков за 24 часа, мм.
S - Снежный покров - Высота снежного покрова, см. При наведении курсора мыши на число - состояние снежного покрова и степень покрытия местности в баллах.